SCP
0 0 0 0 0 0 0 0 0 0 0 1 2 2 2 2 2 2 2 3 3 3 3 4 5 5 5 5 6 6 6 6 7 7 6 5 4 4 5 5 5 6 7 7
0 0 0 0 0 0 0 0 0 0 1 1 2 2 2 2 2 3 3 3 3 3 4 4 5 6 6 6 6 6 6 6 7 7 6 6 5 5 5 5 5 6 7 7
0 0 0 0 0 0 0 0 0 1 1 1 1 2 2 2 3 3 3 3 4 4 4 5 5 6 6 6 6 6 6 6 6 7 7 7 7 6 6 5 6 6 7 8
0 0 0 0 0 0 0 1 1 1 1 1 1 2 2 2 3 4 5 4 4 5 5 5 6 6 6 5 4 5 6 6 6 7 8 8 8 8 8 8 8 10 11 11
0 0 0 1 1 1 1 1 1 1 2 2 2 2 2 2 4 6 8 7 5 5 6 6 7 7 7 6 5 5 5 5 6 7 9 9 9 9 10 11 12 13 14 15
0 0 0 1 1 1 1 1 1 1 1 2 2 2 3 3 5 9 11 10 7 6 7 7 7 7 8 8 7 7 6 6 7 8 9 10 10 11 12 13 14 14 15 15
0 0 1 1 1 1 1 1 1 1 1 2 3 3 3 4 5 9 12 11 9 9 10 8 7 7 8 9 9 8 8 7 7 7 8 9 11 12 13 13 12 12 11 11
0 1 1 1 1 1 1 2 2 2 2 3 4 4 4 4 5 8 10 10 10 10 9 8 7 7 8 9 9 8 8 9 9 8 7 8 9 9 10 10 9 8 7 7
1 1 1 2 1 1 2 3 3 4 4 5 5 5 5 5 6 7 7 7 7 7 7 7 6 7 9 11 11 10 10 10 10 8 7 7 6 6 5 5 5 4 5 5
1 1 1 1 1 2 3 4 6 6 5 5 5 5 6 6 6 6 5 5 5 6 6 6 7 8 9 12 13 12 11 10 9 8 7 6 4 3 3 3 3 3 4 5
1 1 1 1 2 2 4 6 7 7 6 4 3 5 6 6 6 6 5 4 4 5 5 6 7 8 8 10 11 11 10 8 7 6 5 4 3 2 2 2 3 3 4 5
1 1 1 2 3 3 3 5 6 6 5 3 3 4 5 6 6 6 5 4 4 4 4 5 6 6 6 8 9 9 8 7 6 5 4 3 2 1 1 1 2 2 3 3
1 1 2 2 2 2 2 2 3 3 3 2 3 4 5 6 6 6 5 4 4 4 4 4 4 5 5 6 7 8 7 6 5 4 3 2 2 1 1 1 1 1 1 1
2 2 2 2 2 1 1 1 1 1 2 2 2 3 4 5 5 5 4 3 4 4 4 4 5 5 5 6 7 7 6 5 4 4 3 2 2 1 1 1 1 1 1 0
2 2 2 2 1 1 1 1 1 2 2 2 2 3 3 3 4 4 4 4 4 4 5 5 5 5 6 6 6 6 5 5 4 3 3 2 2 2 1 1 1 1 1 1
2 2 2 1 1 1 1 1 2 2 3 3 2 2 2 3 3 4 5 6 6 6 6 6 7 6 6 6 6 6 5 4 3 2 2 2 2 2 2 1 1 2 2 2
2 2 2 1 1 1 1 1 1 2 2 3 3 2 2 3 3 5 7 8 8 8 8 8 7 7 6 5 5 4 3 2 2 2 2 2 2 2 2 2 1 2 2 2
2 2 2 1 1 1 1 1 1 1 2 2 3 3 3 3 4 5 7 9 10 9 8 7 6 5 5 4 3 3 2 1 1 1 1 1 1 1 1 1 1 1 1 1
2 2 1 1 1 1 1 1 1 1 1 2 2 3 4 4 5 5 6 7 8 8 7 6 5 4 3 2 2 2 2 1 1 1 1 1 1 1 1 1 1 1 1 1
2 1 1 1 1 1 1 1 1 1 1 1 2 3 3 4 5 6 6 6 6 6 5 4 4 3 3 2 2 2 2 1 1 1 1 1 0 1 1 1 1 1 1 1
2 2 2 2 2 1 1 1 1 1 1 1 2 2 2 3 4 5 5 5 6 6 5 4 4 4 3 2 1 2 2 2 1 1 1 1 1 0 0 1 1 1 1 1
2 2 2 2 2 2 1 1 1 1 1 1 1 2 2 2 2 3 3 4 4 4 4 4 4 3 3 2 2 2 1 1 1 1 1 1 1 1 0 0 0 1 1 1
2 2 3 3 2 2 2 1 1 1 1 1 1 1 1 1 1 1 1 1 1 2 2 3 2 2 2 2 2 2 2 2 2 1 1 1 1 1 1 0 0 0 0 1
3 4 4 3 3 3 2 1 1 1 1 1 1 1 1 1 1 1 1 0 0 0 1 1 1 1 1 1 2 2 2 2 2 2 2 1 1 1 1 1 1 0 0 0
4 4 4 4 3 2 2 1 1 1 1 1 1 1 1 1 1 0 0 0 0 0 0 0 0 0 0 1 1 1 2 2 2 2 2 2 2 1 1 1 1 1 1 0
4 4 4 4 3 2 2 1 1 1 1 1 1 1 1 1 0 0 0 0 0 0 0 0 0 0 0 0 0 0 1 1 1 1 1 1 1 1 1 1 1 1 1 1
3 4 5 4 3 2 2 1 1 1 1 1 1 1 1 1 1 0 0 0 0 0 0 0 0 0 0 0 0 0 0 0 0 0 0 1 1 1 1 1 1 1 1 1
Wind_Speed
10 9 9 10 10 11 13 13 14 11 10 7 4 3 2 1 1 1 1 0 1 1 1 1 1 2 2 3 3 3 4 5 5 6 6 7 7 7 8 8 8 8 8 8
10 9 9 11 11 12 12 12 13 12 10 4 2 2 2 2 2 2 1 1 0 1 1 1 1 2 2 3 3 3 4 4 4 5 5 6 7 7 7 8 7 7 8 8
10 8 10 12 9 9 9 9 10 11 6 3 3 3 3 3 3 2 2 1 1 1 1 1 2 2 2 2 3 3 4 4 4 4 5 5 6 6 6 7 7 7 7 7
8 7 13 4 2 5 8 8 8 7 4 3 4 3 3 3 3 2 2 2 2 2 2 2 1 1 2 2 3 3 3 3 3 4 4 4 5 5 6 5 6 5 5 5
8 11 10 5 2 3 6 8 4 5 4 4 3 4 4 1 1 2 2 3 3 3 1 1 1 1 1 2 2 3 4 3 3 4 4 4 5 5 5 4 5 5 4 4
9 11 10 2 2 2 7 8 1 4 5 5 4 7 2 0 2 3 2 2 3 1 1 1 1 1 1 1 2 3 3 3 3 3 4 4 4 4 4 4 4 4 3 4
12 11 6 4 2 3 8 3 4 4 5 5 6 6 3 2 2 2 2 2 2 1 1 1 1 1 1 1 2 2 2 2 3 3 3 4 3 3 3 3 3 3 3 3
9 11 6 4 1 3 5 6 5 5 5 5 5 5 3 3 2 2 2 1 1 0 1 1 1 1 1 2 2 2 2 2 2 2 2 1 2 2 3 3 3 4 3 3
5 3 3 1 2 3 4 5 5 5 5 4 5 4 4 3 3 2 2 1 1 1 1 0 1 1 2 2 1 1 1 1 1 1 1 1 2 2 3 3 3 3 3 3
5 3 2 3 3 4 5 5 5 5 4 4 4 3 3 3 2 1 1 1 1 1 1 1 1 2 2 2 1 1 1 1 1 1 1 0 1 1 1 2 2 2 2 2
6 4 3 2 3 4 5 5 4 4 4 3 3 3 3 3 2 2 1 1 1 1 1 1 1 2 2 2 1 1 1 1 1 1 1 0 0 1 1 0 1 1 2 2
5 3 4 4 4 4 4 4 3 3 4 4 3 3 3 3 2 2 1 1 1 1 1 1 1 2 1 1 1 1 2 1 1 1 1 1 1 2 5 3 4 3 1 1
5 5 5 5 4 3 3 3 3 3 3 4 3 2 2 2 2 1 1 1 1 1 1 1 1 1 1 1 1 1 1 1 1 1 1 1 1 1 1 2 3 3 2 2
4 4 4 4 3 3 2 2 2 2 2 2 2 2 2 2 2 2 2 2 2 2 1 1 1 1 1 1 1 2 2 2 2 1 1 1 1 1 1 1 1 1 2 3
5 5 4 3 3 2 2 1 1 1 2 2 2 2 2 2 2 2 2 1 1 1 1 1 1 1 1 1 2 2 2 1 1 1 1 1 1 1 1 1 1 1 1 2
4 4 3 2 2 2 2 2 2 2 2 2 2 2 2 2 1 1 1 1 1 1 2 2 2 2 1 1 2 1 1 0 1 1 1 1 2 1 1 1 1 1 1 0
4 4 3 3 3 3 3 2 2 2 2 2 2 2 2 1 1 1 1 1 1 2 2 2 2 2 1 1 2 1 1 2 2 2 2 2 1 1 1 1 1 1 1 1
4 4 3 3 3 3 3 2 2 2 2 2 2 2 2 1 1 1 1 1 2 2 2 2 2 2 1 1 1 1 1 2 2 2 2 1 1 2 2 2 2 2 1 2
2 2 2 2 2 2 2 1 2 2 2 2 2 2 2 2 1 1 1 1 2 2 2 2 1 2 2 1 1 2 2 2 2 2 2 1 2 2 2 2 2 2 2 1
1 1 0 0 0 1 1 1 1 1 1 1 1 1 1 1 0 1 1 2 2 3 3 3 3 2 2 1 3 3 2 2 1 1 1 2 2 2 2 2 2 2 2 2
1 1 1 0 1 1 1 1 1 1 1 1 1 1 1 1 1 1 2 2 2 3 3 3 3 2 2 1 3 2 2 2 2 1 2 2 2 2 2 3 3 3 2 2
1 1 1 1 1 1 1 0 0 1 1 1 1 1 1 1 1 1 2 2 2 3 3 3 2 2 3 3 2 1 2 2 2 2 2 2 2 3 3 3 3 2 2 3
0 0 1 1 1 1 1 0 1 1 1 1 1 1 2 1 1 2 1 1 2 3 3 2 3 3 2 3 2 1 1 1 2 2 2 2 2 3 3 3 2 2 3 3
1 0 1 1 0 0 0 0 0 1 1 2 2 1 2 1 1 1 2 1 2 2 2 2 2 2 3 3 2 2 2 2 2 2 2 2 2 2 2 2 2 3 3 3
1 1 1 1 1 1 1 1 1 2 2 2 1 1 1 1 1 1 2 2 1 2 2 0 1 2 3 2 2 2 1 1 1 2 2 2 2 2 2 3 3 3 3 3
2 2 2 2 2 2 2 2 2 2 2 1 1 1 1 0 1 1 1 1 0 1 2 2 1 2 2 1 1 1 1 1 1 2 2 3 3 3 3 3 4 3 3 3
4 3 3 3 2 2 2 2 2 2 2 1 1 1 1 1 1 0 1 1 1 1 2 2 2 1 2 1 1 1 1 1 2 2 2 3 3 3 3 3 3 3 3 3
Wind_Direction
264 271 261 252 248 242 245 258 267 271 269 268 271 282 285 274 228 186 161 157 149 143 150 171 188 210 215 223 227 232 233 236 238 241 240 237 234 233 235 236 234 232 232 232
249 251 252 251 247 246 248 257 261 267 269 296 277 258 255 256 238 235 226 254 272 200 168 185 218 234 235 239 240 238 240 247 248 248 245 242 239 234 234 236 237 235 232 232
248 240 248 241 238 242 244 253 261 264 276 292 251 252 257 255 242 247 253 263 291 264 244 235 233 232 242 247 244 242 244 251 253 255 255 251 246 239 237 235 233 234 235 230
252 238 243 238 242 257 255 256 261 269 275 276 276 271 269 264 260 258 276 281 287 275 252 247 238 236 251 245 244 245 248 255 257 254 255 251 243 241 239 237 232 229 231 229
248 245 245 221 193 260 257 260 267 273 279 277 277 259 228 258 311 299 298 301 299 286 275 287 274 260 257 253 244 246 247 250 252 251 250 249 242 240 239 237 233 227 223 227
246 255 252 214 102 293 261 241 9 301 284 283 257 256 239 345 311 310 320 323 299 291 285 277 310 291 266 269 262 261 261 258 254 248 245 245 247 243 240 233 230 228 219 223
245 250 247 61 47 254 244 319 357 313 300 286 278 300 332 305 305 311 316 315 313 323 310 327 320 288 275 277 279 290 283 265 259 253 245 243 243 236 230 230 225 220 213 219
239 245 233 71 304 275 333 338 318 309 303 301 310 309 305 296 297 299 304 313 330 343 329 336 281 246 272 288 299 302 286 259 252 258 264 236 223 226 224 218 211 210 203 214
259 273 28 24 333 346 328 322 319 312 310 301 296 300 309 301 301 307 318 306 277 273 283 305 274 264 274 294 297 298 292 253 236 231 250 224 203 204 204 208 218 209 205 204
269 254 309 310 328 333 328 321 318 313 310 308 307 312 318 313 322 335 330 302 253 240 267 305 299 282 287 291 281 254 247 242 224 200 202 189 257 244 223 209 215 205 208 228
259 273 277 269 315 330 328 322 324 326 329 328 334 337 337 331 329 342 342 339 312 264 262 285 295 285 281 282 266 248 240 233 217 191 154 130 93 5 313 322 312 260 239 236
277 306 290 294 311 320 323 327 336 339 337 330 335 339 335 334 338 334 317 297 262 268 283 281 266 266 267 249 240 235 230 226 209 190 173 184 136 94 53 37 67 80 49 292
296 300 303 294 293 303 306 319 326 327 325 313 327 330 324 321 325 317 298 279 258 253 255 255 258 260 260 226 218 235 245 247 239 196 179 189 155 141 112 86 86 87 105 122
279 283 277 280 294 311 319 323 323 337 324 322 346 344 340 331 327 320 305 288 270 260 254 248 256 274 278 240 220 224 220 207 235 208 194 194 171 156 157 161 143 117 122 147
274 278 281 293 300 307 315 310 319 337 347 351 349 337 326 324 323 314 318 313 293 269 270 286 289 299 287 254 235 234 236 220 211 225 208 193 189 177 172 171 171 155 133 130
267 267 263 254 261 285 297 307 320 318 319 331 333 329 324 315 316 329 328 317 290 300 312 310 303 303 290 256 229 216 209 65 251 228 214 197 197 203 198 195 198 182 197 147
246 242 242 249 257 268 286 297 299 299 302 314 326 326 315 315 331 330 319 325 333 330 329 328 319 318 288 247 241 234 210 163 184 229 224 213 218 223 217 213 221 226 212 139
254 253 260 267 266 268 275 282 284 285 291 310 320 315 313 301 302 324 329 337 348 357 354 338 330 320 280 246 244 249 225 217 213 225 228 226 232 233 223 217 221 235 231 159
237 244 255 270 271 263 258 275 292 293 284 280 288 300 305 298 303 307 308 304 316 322 334 337 322 275 268 253 235 223 229 227 223 225 223 201 222 237 239 232 235 237 244 237
159 148 137 48 303 286 288 283 272 262 267 267 266 280 285 277 293 284 283 282 313 330 330 328 298 284 275 248 238 226 219 225 224 217 222 222 228 234 234 233 240 243 245 247
118 119 110 64 52 28 335 288 253 249 264 261 249 256 261 253 268 279 284 298 337 338 320 298 281 289 290 292 234 236 216 214 224 232 235 239 244 246 245 249 254 255 254 256
99 121 123 104 95 71 53 84 177 193 204 234 245 248 240 238 249 277 295 308 316 329 297 288 309 22 358 305 258 234 208 213 235 244 250 253 253 251 250 254 260 266 269 270
13 83 91 81 93 87 83 129 177 192 215 235 249 251 257 278 281 275 281 323 320 337 308 339 28 32 333 276 274 264 242 234 254 262 259 256 260 263 262 260 266 272 274 271
342 13 34 56 124 137 222 235 201 214 236 240 238 239 262 268 267 301 341 11 338 316 310 29 30 345 282 268 273 264 263 264 262 265 277 280 276 276 276 274 273 271 269 269
276 261 270 265 239 247 256 252 243 241 244 240 234 215 234 262 298 334 335 344 14 299 291 120 208 260 270 286 289 277 267 282 302 298 281 281 282 278 273 271 272 272 273 271
256 248 249 263 272 265 255 246 246 256 256 237 223 224 229 212 225 254 267 284 335 292 288 274 234 229 253 274 293 292 288 263 251 267 284 286 283 282 281 283 281 277 272 269
246 238 233 240 241 247 255 253 254 264 270 255 239 217 223 246 254 305 332 327 326 304 295 283 267 255 263 261 259 264 266 278 283 285 285 285 286 285 285 282 280 279 276 266